Meteo pe oră la Dabwali

Astăzi, 14 Aprilie, Miercuri

Timp Temperatura Precipitaţii Vânt Presiune Umiditate
00:00 +30°C° 0 mm 2 m/s 739 mmHg 16%
01:00 +29°C° 0 mm 2 m/s 739 mmHg 17%
02:00 +29°C° 0 mm 3 m/s 738 mmHg 17%
03:00 +28°C° 0 mm 2 m/s 738 mmHg 18%
04:00 +27°C° 0 mm 2 m/s 738 mmHg 19%
05:00 +27°C° 0 mm 1 m/s 739 mmHg 21%
06:00 +29°C° 0 mm 1 m/s 739 mmHg 19%
07:00 +31°C° 0 mm 1 m/s 740 mmHg 17%
08:00 +33°C° 0 mm 1 m/s 740 mmHg 15%
09:00 +35°C° 0 mm 1 m/s 740 mmHg 13%
10:00 +39°C° 0 mm 1 m/s 740 mmHg 11%
11:00 +41°C° 0 mm 2 m/s 740 mmHg 9%
12:00 +42°C° 0 mm 2 m/s 739 mmHg 8%
13:00 +43°C° 0 mm 3 m/s 739 mmHg 8%
14:00 +44°C° 0 mm 3 m/s 738 mmHg 7%
15:00 +43°C° 0 mm 3 m/s 737 mmHg 7%
16:00 +43°C° 0 mm 4 m/s 737 mmHg 7%
17:00 +43°C° 0 mm 4 m/s 736 mmHg 7%
18:00 +40°C° 0 mm 4 m/s 736 mmHg 9%
19:00 +37°C° 0 mm 3 m/s 737 mmHg 11%
20:00 +35°C° 0 mm 3 m/s 737 mmHg 13%
21:00 +34°C° 0 mm 2 m/s 737 mmHg 13%
22:00 +34°C° 0 mm 2 m/s 737 mmHg 13%
23:00 +32°C° 0 mm 1 m/s 737 mmHg 13%

Mâine, 15 Aprilie, Joi

Timp Temperatura Precipitaţii Vânt Presiune Umiditate
00:00 +31°C° 0 mm 1 m/s 737 mmHg 14%
01:00 +30°C° 0 mm 1 m/s 737 mmHg 16%
02:00 +28°C° 0 mm 1 m/s 737 mmHg 17%
03:00 +28°C° 0 mm 1 m/s 737 mmHg 17%
04:00 +28°C° 0 mm 2 m/s 737 mmHg 17%
05:00 +27°C° 0 mm 2 m/s 738 mmHg 17%
06:00 +30°C° 0 mm 3 m/s 738 mmHg 15%
07:00 +33°C° 0 mm 3 m/s 739 mmHg 12%
08:00 +35°C° 0 mm 4 m/s 739 mmHg 10%
09:00 +38°C° 0 mm 4 m/s 739 mmHg 9%
10:00 +41°C° 0 mm 4 m/s 739 mmHg 8%
11:00 +43°C° 0 mm 5 m/s 739 mmHg 7%
12:00 +43°C° 0 mm 5 m/s 738 mmHg 7%
13:00 +44°C° 0 mm 6 m/s 737 mmHg 7%
14:00 +44°C° 0 mm 6 m/s 737 mmHg 7%
15:00 +42°C° 0 mm 6 m/s 736 mmHg 7%
16:00 +42°C° 0 mm 5 m/s 736 mmHg 8%
17:00 +42°C° 0 mm 4 m/s 736 mmHg 8%
18:00 +38°C° 0 mm 4 m/s 736 mmHg 10%
19:00 +36°C° 0 mm 3 m/s 736 mmHg 12%
20:00 +34°C° 0 mm 2 m/s 736 mmHg 14%
21:00 +32°C° 0 mm 2 m/s 736 mmHg 14%
22:00 +32°C° 0 mm 1 m/s 736 mmHg 15%
23:00 +31°C° 0 mm 1 m/s 736 mmHg 16%

Poimâine, 16 Aprilie, Vineri

Timp Temperatura Precipitaţii Vânt Presiune Umiditate
00:00 +30°C° 0 mm 1 m/s 736 mmHg 16%
01:00 +30°C° 0 mm 2 m/s 735 mmHg 17%
02:00 +29°C° 0 mm 2 m/s 735 mmHg 18%
03:00 +28°C° 0 mm 2 m/s 735 mmHg 18%
04:00 +27°C° 0 mm 1 m/s 735 mmHg 19%
05:00 +27°C° 0 mm 1 m/s 735 mmHg 20%
06:00 +28°C° 0 mm 1 m/s 736 mmHg 18%
07:00 +30°C° 0 mm 1 m/s 736 mmHg 17%
08:00 +32°C° 0 mm 2 m/s 737 mmHg 15%
09:00 +35°C° 0 mm 3 m/s 737 mmHg 13%
10:00 +37°C° 0 mm 4 m/s 737 mmHg 11%
11:00 +41°C° 0 mm 5 m/s 737 mmHg 9%
12:00 +39°C° 0 mm 6 m/s 737 mmHg 14%
13:00 +38°C° 0 mm 8 m/s 737 mmHg 18%
14:00 +35°C° 0 mm 9 m/s 737 mmHg 22%
15:00 +35°C° 0 mm 7 m/s 736 mmHg 22%
16:00 +35°C° 0 mm 4 m/s 736 mmHg 21%
17:00 +35°C° 0 mm 2 m/s 735 mmHg 21%
18:00 +32°C° 0.1 mm 2 m/s 736 mmHg 26%
19:00 +30°C° 0.1 mm 2 m/s 736 mmHg 31%
20:00 +29°C° 0.1 mm 3 m/s 737 mmHg 37%
21:00 +28°C° 0 mm 3 m/s 737 mmHg 40%
22:00 +27°C° 0 mm 3 m/s 737 mmHg 44%
23:00 +27°C° 0 mm 2 m/s 737 mmHg 48%

17 Aprilie, Sâmbătă

Timp Temperatura Precipitaţii Vânt Presiune Umiditate
00:00 +26°C° 0 mm 2 m/s 737 mmHg 50%
01:00 +26°C° 0 mm 2 m/s 737 mmHg 52%
02:00 +25°C° 0 mm 1 m/s 737 mmHg 54%
03:00 +25°C° 0 mm 2 m/s 737 mmHg 56%
04:00 +24°C° 0 mm 3 m/s 737 mmHg 58%
05:00 +24°C° 0 mm 3 m/s 737 mmHg 60%
06:00 +25°C° 0 mm 3 m/s 738 mmHg 54%
07:00 +27°C° 0 mm 4 m/s 738 mmHg 48%
08:00 +29°C° 0 mm 4 m/s 739 mmHg 42%
09:00 +32°C° 0 mm 4 m/s 739 mmHg 36%
10:00 +34°C° 0 mm 4 m/s 740 mmHg 30%
11:00 +35°C° 0 mm 3 m/s 740 mmHg 24%
12:00 +36°C° 0 mm 4 m/s 739 mmHg 22%
13:00 +37°C° 0 mm 4 m/s 739 mmHg 19%
14:00 +38°C° 0 mm 4 m/s 738 mmHg 17%
15:00 +39°C° 0 mm 5 m/s 738 mmHg 16%
16:00 +39°C° 0 mm 5 m/s 738 mmHg 16%
17:00 +39°C° 0 mm 5 m/s 737 mmHg 15%
18:00 +36°C° 0 mm 4 m/s 738 mmHg 18%
19:00 +34°C° 0 mm 4 m/s 739 mmHg 21%
20:00 +31°C° 0 mm 3 m/s 739 mmHg 24%
21:00 +29°C° 0 mm 3 m/s 740 mmHg 28%
22:00 +28°C° 0 mm 4 m/s 740 mmHg 33%
23:00 +26°C° 0 mm 4 m/s 740 mmHg 38%

18 Aprilie, Duminică

Timp Temperatura Precipitaţii Vânt Presiune Umiditate
00:00 +26°C° 0 mm 3 m/s 740 mmHg 41%
01:00 +25°C° 0 mm 3 m/s 739 mmHg 43%
02:00 +24°C° 0 mm 3 m/s 739 mmHg 45%
03:00 +24°C° 0 mm 2 m/s 739 mmHg 45%
04:00 +24°C° 0 mm 2 m/s 739 mmHg 45%
05:00 +24°C° 0 mm 2 m/s 739 mmHg 44%
06:00 +26°C° 0 mm 2 m/s 740 mmHg 40%
07:00 +28°C° 0 mm 2 m/s 740 mmHg 35%
08:00 +29°C° 0 mm 2 m/s 741 mmHg 31%
09:00 +32°C° 0 mm 2 m/s 741 mmHg 27%
10:00 +35°C° 0 mm 2 m/s 741 mmHg 22%
11:00 +36°C° 0 mm 1 m/s 741 mmHg 18%
12:00 +38°C° 0 mm 2 m/s 740 mmHg 16%
13:00 +39°C° 0 mm 3 m/s 739 mmHg 14%
14:00 +41°C° 0 mm 4 m/s 738 mmHg 12%
15:00 +41°C° 0 mm 5 m/s 738 mmHg 12%
16:00 +41°C° 0 mm 5 m/s 737 mmHg 12%
17:00 +40°C° 0 mm 6 m/s 737 mmHg 11%
18:00 +37°C° 0 mm 5 m/s 737 mmHg 14%
19:00 +35°C° 0 mm 4 m/s 737 mmHg 16%
20:00 +31°C° 0 mm 3 m/s 738 mmHg 19%
21:00 +30°C° 0 mm 3 m/s 738 mmHg 22%
22:00 +29°C° 0 mm 3 m/s 738 mmHg 24%
23:00 +28°C° 0 mm 3 m/s 738 mmHg 27%

19 Aprilie, Luni

Timp Temperatura Precipitaţii Vânt Presiune Umiditate
00:00 +27°C° 0 mm 3 m/s 738 mmHg 31%
01:00 +27°C° 0 mm 3 m/s 737 mmHg 36%
02:00 +26°C° 0 mm 3 m/s 737 mmHg 40%
03:00 +25°C° 0 mm 3 m/s 737 mmHg 42%
04:00 +25°C° 0 mm 2 m/s 737 mmHg 44%
05:00 +24°C° 0 mm 2 m/s 737 mmHg 47%
06:00 +27°C° 0 mm 2 m/s 737 mmHg 41%
07:00 +29°C° 0 mm 2 m/s 738 mmHg 36%
08:00 +31°C° 0 mm 1 m/s 738 mmHg 30%
09:00 +34°C° 0 mm 2 m/s 738 mmHg 25%
10:00 +37°C° 0 mm 3 m/s 738 mmHg 20%
11:00 +40°C° 0 mm 4 m/s 738 mmHg 15%
12:00 +41°C° 0 mm 4 m/s 737 mmHg 13%
13:00 +42°C° 0 mm 4 m/s 736 mmHg 11%
14:00 +42°C° 0 mm 5 m/s 736 mmHg 9%
15:00 +42°C° 0 mm 5 m/s 735 mmHg 9%
16:00 +42°C° 0 mm 5 m/s 735 mmHg 8%
17:00 +41°C° 0 mm 5 m/s 735 mmHg 7%
18:00 +38°C° 0 mm 4 m/s 735 mmHg 9%
19:00 +36°C° 0 mm 3 m/s 735 mmHg 10%
20:00 +34°C° 0 mm 2 m/s 735 mmHg 11%
21:00 +32°C° 0 mm 2 m/s 735 mmHg 12%
22:00 +31°C° 0 mm 2 m/s 735 mmHg 12%
23:00 +30°C° 0 mm 2 m/s 736 mmHg 13%
Arată mai mult

Formular de consimțământ

Meteoprog și furnizorii noștri de servicii pot stoca și accesa date personale, precum cookies, identificatori de dispozitiv sau alte tehnologii similare pe dispozitivul dumneavoastră și procesa astfel de date pentru a personaliza conținutul și reclamele, dar și pentru a oferi caracteristici de social media și pentru a analiza traficul.

  • Stocarea și/sau accesarea informațiilor pe dispozitivul dumneavoastră

    Cookies, identificatori de dispozitiv sau alte informații pot fi stocate sau accesate pe dispozitiv în scopurile indicate mai sus.

  • Reclame și conținut personalizat, evaluarea reclamelor și a conținutului, informații despre audiențe și dezvoltarea produselor

    Reclamele și conținutul pot fi personalizate pe baza unui profil. Pot fi adăugate date suplimentare pentru a personaliza mai bine reclamele și conținutul. Performanța reclamelor și conținutului poate fi măsurată. Pot fi obținute informații despre utilizatorii care au văzut reclamele și conținutul. Aceste date pot fi utilizate pentru a dezvolta sau îmbunătăți experiența utilizatorilor, sistemele și software-ul.

Dând clic pe ‘Sunt de acord’, permiteți utilizarea cookie-urilor menționate, a identificatorilor de dispozitiv, balizelor web sau altor tehnologii similare. Setările pot fi modificate din browser-ul dispozitivului dumneavoastră.

În anumite scopuri, interesele legitime pot prima asupra consimțământului. Puteți citi mai multe informații în acest sens în Politica privind Confidențialitatea Datelor și Cookie.